Regional Weather Roundup
Issued by NWS

Home | Current Version | Previous Version | Text Only | Print | Product List | Glossary On
Versions: 1 2 3 4 5 6 7 8 9 10 11 12 13 14 15 16 17 18 19 20 21 22 23 24 25 26 27 28 29 30 31 32 33 34 35 36 37 38 39 40 41 42 43 44 45 46 47 48 49 50
000
ASUS42 KTBW 111516
RWRFL
FLORIDA REGIONAL WEATHER ROUNDUP
NATIONAL WEATHER SERVICE TAMPA BAY RUSKIN FL
1000 AM EST THU FEB 11 2016

NOTE: "FAIR" INDICATES FEW OR NO CLOUDS BELOW 12,000 FEET WITH NO
SIGNIFICANT WEATHER AND/OR OBSTRUCTIONS TO VISIBILITY.


FLZ001>010-012>015-112-114-115-111600-
PANHANDLE FLORIDA

CITY           SKY/WX    TMP DP  RH WIND       PRES   REMARKS
PENSACOLA      SUNNY     61  44  53 SW10      30.24F
PENSACOLA NAS  SUNNY     63  46  54 SW12      30.24F
MILTON NAS     SUNNY     57  46  66 S10       30.24
CRESTVIEW      SUNNY     52  43  71 S3        30.27R
DUKE FIELD     SUNNY     55  44  66 S8        30.24R
VALPARAISO     SUNNY     57  48  71 SW7       30.24F
MARY ESTHER    SUNNY     62  47  58 SW8       30.25S
TRI COUNTY     FAIR      51  40  65 S8        30.27S
PANAMA CITY    FAIR      52  40  63 SE5       30.27R
TYNDALL AFB    SUNNY     56  44  64 VRB2      30.28S
APALACHICOLA   SUNNY     60  48  64 CALM      30.29S

STATION/POSITION SKY/WX   TEMP    WIND        PRES    WAVE   SWELL
                          AIR SEA DIR/SP/G            HT/PER HT/PER
                          (F)     (DEG/KT/KT) (MB)    (FT/S) (FT/S)
PANAMA CITY BEAC           50 56  120/  4/  5 1025.3S
CAPE SAN BLAS    NOT AVBL
TOWER C          NOT AVBL

$$
FLZ011-016>038-118-127-128-134-139-239-111600-
NORTH FLORIDA

CITY           SKY/WX    TMP DP  RH WIND       PRES   REMARKS
MARIANNA       SUNNY     51  39  63 S9        30.27R
TALLAHASSEE    SUNNY     50  32  50 CALM      30.29S
PERRY          SUNNY     55  35  45 S3        30.31S
LIVE OAK         N/A     54  32  43 CALM      30.32F
CROSS CITY       N/A     55  35  47 CALM      30.32S
LAKE CITY      FAIR      50  28  43 W3        30.31S
GAINESVILLE    SUNNY     52  28  39 VRB3      30.33S
WILLISTON      FAIR      54  32  43 SE5       30.35R
KEYSTONE HEIGH FAIR      52  25  35 CALM      30.32F
PALATKA        FAIR      50  23  34 CALM      30.33F
MAYPORT NAS    SUNNY     49  26  41 CALM      30.31S
JACKSONVILLE   SUNNY     50  26  39 CALM      30.31S
JAX NAS        SUNNY     49  26  41 CALM      30.32S
JAX CRAIG      SUNNY     51  24  34 CALM      30.31F
JAX CECIL      SUNNY     48  27  43 VRB5      30.32S
FERNANDINA BEA FAIR      52  23  32 W3        30.29S
ST AUGUSTINE   SUNNY     50  25  37 CALM      30.33F
PALM COAST     SUNNY     50  27  40 NW3       30.34S

STATION/POSITION SKY/WX   TEMP    WIND        PRES    WAVE   SWELL
                          AIR SEA DIR/SP/G            HT/PER HT/PER
                          (F)     (DEG/KT/KT) (MB)    (FT/S) (FT/S)
SHELL POINT                50     140/  2/  3 1024.9
KEATON BEACH     NOT AVBL
CEDAR KEY        NOT AVBL
FERNANDINA                 47 53   CALM  /  2 1026.2R
30.7N   81.3W                 55                N/A     1/14   2/14
MAYPORT                    45 54  260/  3/  5 1026.2R
ST AUGUSTINE     NOT AVBL

$$
FLZ040-043>046-052-053-057-058-063-144-111600-
INTERIOR CENTRAL FLORIDA

CITY           SKY/WX    TMP DP  RH WIND       PRES   REMARKS
OCALA          SUNNY     52  28  40 CALM      30.34S
THE VILLAGES     N/A     54  27  35 CALM      30.25S
LEESBURG       SUNNY     55  27  34 VRB6      30.36R
SANFORD        SUNNY     52  27  38 N9        30.34F
ORLANDO EXEC   SUNNY     54  22  28 N6        30.35R
ORLANDO INTL   SUNNY     54  24  31 N12       30.35S
KISSIMMEE      SUNNY     54  28  37 N8        30.36R
WINTER HAVEN   SUNNY     54  32  43 NE9       30.36S
BARTOW         SUNNY     50  32  50 NE8       30.36S
OKEECHOBEE     SUNNY     52  36  54 N10G18    30.36R

$$
FLZ041-047-054-059-064-141-147-111600-
EAST CENTRAL FLORIDA

CITY           SKY/WX    TMP DP  RH WIND       PRES   REMARKS
ORMOND BEACH   SUNNY     46  27  46 NW6       30.34F WCI  43
DAYTONA BEACH  SUNNY     52  23  32 CALM      30.35S
DELAND           N/A     50  19  29 CALM      30.36S
NEW SMYRNA BEA SUNNY     50  21  32 NW7       30.34R
JFK SPACE CTR  SUNNY     54  23  29 N7        30.33F
TITUSVILLE     SUNNY     52  14  22 N15       30.35S
CAPE CANAVERAL SUNNY     55  26  32 NW13      30.33S
PATRICK AFB    SUNNY     54  25  32 N9        30.35R
MELBOURNE      SUNNY     55  24  30 N13       30.35S
VERO BEACH     SUNNY     55  33  43 N9G18     30.36R
FT PIERCE      SUNNY     54  33  45 N8        30.36R
STUART         MOSUNNY  N/A N/A N/A N6        30.37R

STATION/POSITION SKY/WX   TEMP    WIND        PRES    WAVE   SWELL
                          AIR SEA DIR/SP/G            HT/PER HT/PER
                          (F)     (DEG/KT/KT) (MB)    (FT/S) (FT/S)
TRIDENT PIER               49 62  340/ 10/ 13 1027.1R
28.4N   80.5W                 63                N/A     2/15
27.5N   80.2W                 69                N/A     4/13   2/13

$$
FLZ050-056-061-142-242-148-248-149-249-151-251-155-255-
160-260-111600-
WEST CENTRAL FLORIDA

CITY           SKY/WX    TMP DP  RH WIND       PRES   REMARKS
CRYSTAL RIVER  FAIR      54  34  47 CALM      30.35S
INVERNESS      FAIR      52  37  58 CALM      30.35F
BROOKSVILLE    SUNNY     55  34  45 NE6       30.35S
ZEPHYRHILLS    FAIR      54  33  44 N7        30.35S
CLEARWATER AIR FAIR      52  41  66 E5        30.35R
ST PETE CLEARW SUNNY     52  41  66 E7        30.35R
TAMPA INTL     SUNNY     54  38  54 NE3       30.36R
TAMPA EXEC     SUNNY     55  37  50 E6        30.36S
PLANT CITY     SUNNY     54  39  58 NE5       30.37S
MACDILL AFB    SUNNY     54  43  65 E10       30.34R
PETER O KNIGHT SUNNY     55  41  58 E7        30.36R
ST PETERSBURG  SUNNY     53  43  68 E9        30.34R
SARASOTA       SUNNY     57  43  59 NE9       30.33R
VENICE         FAIR      57  46  67 NE9       30.36R

STATION/POSITION SKY/WX   TEMP    WIND        PRES    WAVE   SWELL
                          AIR SEA DIR/SP/G            HT/PER HT/PER
                          (F)     (DEG/KT/KT) (MB)    (FT/S) (FT/S)
CEDAR KEY        NOT AVBL
27.3N   84.2W                 70                N/A     3/ 8
CLEARWATER BEACH           52 54   70/  7/  9 1027.2R
MIDDLE TAMPA BAY           50      80/ 13/ 14 1027.5R
VENICE           NOT AVBL

$$
FLZ066-069-070-075>078-162-262-165-265-111600-
SOUTHWEST FLORIDA AND KEYS

CITY           SKY/WX    TMP DP  RH WIND       PRES   REMARKS
PUNTA GORDA    SUNNY     54  46  74 NE9       30.37R
FT MYERS       SUNNY     56  45  66 N10       30.35R
SOUTHWEST INTL SUNNY     56  45  66 NE7       30.36R
NAPLES         SUNNY     56  46  69 N12       30.34R
MARCO ISLAND   SUNNY     54  41  62 N9        30.34R
MARATHON       MOSUNNY   58  46  64 N13       30.34R
KEY WEST NAS   PTSUNNY   61  49  64 NE10      30.34R
KEY WEST INTL  MOSUNNY   61  51  70 N10       30.34R

STATION/POSITION SKY/WX   TEMP    WIND        PRES    WAVE   SWELL
                          AIR SEA DIR/SP/G            HT/PER HT/PER
                          (F)     (DEG/KT/KT) (MB)    (FT/S) (FT/S)
VENICE           NOT AVBL
NAPLES                        62              1027.1R
DRY TORTUGAS     NOT AVBL

$$
FLZ067-068-071>074-168-172>174-111600-
SOUTHEAST FLORIDA

CITY           SKY/WX    TMP DP  RH WIND       PRES   REMARKS
W PALM BEACH   MOSUNNY   57  29  34 N15       30.35R
BOCA RATON     SUNNY    N/A N/A N/A N14       30.34R
FT LAUDER-EXEC MOSUNNY   54  33  45 VRB7      30.34R
FT LAUDERDALE  PTSUNNY   53  36  52 N8        30.34R
POMPANO BEACH  MOSUNNY   55  34  45 N13       30.34S
PEMBROKE PINES PTSUNNY   54  38  54 N9        30.37R
OPA LOCKA      PTSUNNY   56  40  55 N12       30.36R
MIAMI          CLOUDY    58  37  45 N10       30.35R
WEST KENDALL   MOSUNNY   56  40  55 N16       30.35R
HOMESTEAD      PTSUNNY   56  42  60 N10       30.34R

STATION/POSITION SKY/WX   TEMP    WIND        PRES    WAVE   SWELL
                          AIR SEA DIR/SP/G            HT/PER HT/PER
                          (F)     (DEG/KT/KT) (MB)    (FT/S) (FT/S)
PORT EVERGLADES            51     330/ 12/ 17 1026.9R
VIRGINIA KEY               53 66  350/  7/ 11 1027.1R
LAKE WORTH                 52 73  340/ 14/ 17 1026.8R

$$




USA.gov is the U.S. government's official web portal to all federal, state and local government web resources and services.